BEIDOU-2 G7 (C03)

Last updated on Aug. 15, 2020, 5:35 a.m. UTC

1 41586U 16037A   20227.50604951 -.00000354  00000-0  00000-0 0  9997
2 41586   1.6081  65.9327 0007652   6.5263 183.6393  1.00274478 15402
UTC
Height (km)
Latitude
Longitude
Inclination
Orbital Period
UTC large
Height (km)
Speed (km/s)
/
Latitude / Longitude
Inclination (degrees)
Orbital Period (minutes)
Azimuth
Elevation
Range (km)
Doppler Factor
iOS Compass Heading
iOS Angle

Next 30 passes for location: Hong Kong

Rise time Rise Azimuth (degrees) Set time Set Azimuth (degrees) Duration Max altitude (degrees)

No matching passes for this satellites